PAS729 WICC-WARA

Flight info

Callsign PAS729
Flight time 1h 2m
Altitude 37000
Route WICC/11 CA1S CA T3 BA W45 SBR SBR1D WARA/35
Aircraft A20N/M-VGDW/C

Departure

Time 2026-04-21 14:53
Airport Husein Sastranegara International Airport (WICC)

Arrival

Time 2026-04-21 15:55
Airport Abdul Rachman Saleh Airport (WARA)
Time Latitude Longitude Altitude Speed Heading
2026-04-21 14:31 -6.90283 107.57832 2459 ft 0 kts 188°
2026-04-21 14:47 -6.90288 107.57831 2459 ft 2 kts 188°
2026-04-21 14:47 -6.90306 107.57812 2458 ft 6 kts 261°
2026-04-21 14:48 -6.90301 107.57763 2457 ft 8 kts 279°
2026-04-21 14:48 -6.90290 107.57700 2457 ft 10 kts 280°
2026-04-21 14:48 -6.90242 107.57674 2458 ft 8 kts 16°
2026-04-21 14:48 -6.90195 107.57689 2460 ft 5 kts 18°
2026-04-21 14:49 -6.90165 107.57700 2461 ft 3 kts 19°
2026-04-21 14:49 -6.90145 107.57707 2463 ft 3 kts 20°
2026-04-21 14:49 -6.90116 107.57714 2464 ft 5 kts 359°
2026-04-21 14:49 -6.90080 107.57672 2466 ft 11 kts 290°
2026-04-21 14:50 -6.90059 107.57609 2466 ft 16 kts 289°
2026-04-21 14:50 -6.89993 107.57423 2466 ft 25 kts 288°
2026-04-21 14:50 -6.89937 107.57255 2467 ft 25 kts 289°
2026-04-21 14:50 -6.89879 107.57085 2468 ft 26 kts 289°
2026-04-21 14:51 -6.89820 107.56911 2467 ft 27 kts 289°
2026-04-21 14:51 -6.89767 107.56742 2466 ft 13 kts 271°
2026-04-21 14:51 -6.89756 107.56686 2465 ft 2 kts 19°
2026-04-21 14:51 -6.89752 107.56704 2465 ft 2 kts 105°
2026-04-21 14:52 -6.89753 107.56706 2465 ft 0 kts 105°
2026-04-21 14:52 -6.89756 107.56719 2466 ft 16 kts 105°
2026-04-21 14:52 -6.89880 107.57088 2468 ft 91 kts 109°
2026-04-21 14:52 -6.90152 107.57881 2465 ft 150 kts 108°
2026-04-21 14:53 -6.90515 107.58959 2831 ft 165 kts 108°
2026-04-21 14:53 -6.90880 107.60055 3396 ft 168 kts 108°
2026-04-21 14:53 -6.91266 107.61159 4028 ft 171 kts 108°
2026-04-21 14:53 -6.91666 107.62285 4552 ft 175 kts 108°
2026-04-21 14:54 -6.92092 107.63482 4872 ft 190 kts 108°
2026-04-21 14:54 -6.92553 107.64777 5197 ft 207 kts 108°
2026-04-21 14:54 -6.93056 107.66200 5469 ft 228 kts 108°
2026-04-21 14:54 -6.93612 107.67774 5886 ft 245 kts 109°
2026-04-21 14:55 -6.94199 107.69450 6297 ft 262 kts 108°
2026-04-21 14:55 -6.94814 107.71216 6730 ft 278 kts 109°
2026-04-21 14:55 -6.95460 107.73072 7417 ft 283 kts 108°
2026-04-21 14:55 -6.96107 107.74927 8184 ft 285 kts 108°
2026-04-21 14:56 -6.96770 107.76816 8930 ft 287 kts 108°
2026-04-21 14:56 -6.97439 107.78714 9658 ft 289 kts 108°
2026-04-21 14:56 -6.98110 107.80607 10357 ft 292 kts 108°
2026-04-21 14:56 -6.98806 107.82561 10798 ft 305 kts 108°
2026-04-21 14:57 -6.99544 107.84628 11095 ft 323 kts 108°
2026-04-21 14:57 -7.00319 107.86797 11378 ft 339 kts 108°
2026-04-21 14:57 -7.01132 107.89075 11777 ft 350 kts 108°
2026-04-21 14:57 -7.01656 107.91472 12364 ft 352 kts 90°
2026-04-21 14:58 -7.01262 107.93868 12993 ft 353 kts 69°
2026-04-21 14:58 -7.00031 107.95987 13601 ft 355 kts 51°
2026-04-21 14:58 -6.98436 107.97893 14192 ft 358 kts 50°
2026-04-21 14:58 -6.96809 107.99831 14738 ft 362 kts 50°
2026-04-21 14:59 -6.95196 108.01756 15268 ft 365 kts 50°
2026-04-21 14:59 -6.93539 108.03735 15802 ft 369 kts 51°
2026-04-21 14:59 -6.91880 108.05717 16329 ft 371 kts 50°
2026-04-21 14:59 -6.90224 108.07695 16839 ft 374 kts 50°
2026-04-21 15:00 -6.88549 108.09697 17324 ft 377 kts 50°
2026-04-21 15:00 -6.86857 108.11719 17808 ft 380 kts 50°
2026-04-21 15:00 -6.85142 108.13769 18266 ft 383 kts 51°
2026-04-21 15:00 -6.83423 108.15823 18708 ft 386 kts 50°
2026-04-21 15:01 -6.81670 108.17919 19144 ft 390 kts 50°
2026-04-21 15:01 -6.79916 108.20017 19570 ft 392 kts 50°
2026-04-21 15:01 -6.78163 108.22115 19978 ft 395 kts 51°
2026-04-21 15:01 -6.76398 108.24224 20383 ft 398 kts 51°
2026-04-21 15:02 -6.74805 108.26527 20725 ft 402 kts 64°
2026-04-21 15:02 -6.73897 108.29182 21078 ft 405 kts 78°
2026-04-21 15:02 -6.73467 108.31993 21475 ft 407 kts 83°
2026-04-21 15:02 -6.73119 108.34820 21827 ft 410 kts 83°
2026-04-21 15:03 -6.72744 108.37639 22173 ft 414 kts 82°
2026-04-21 15:03 -6.72320 108.40521 22555 ft 416 kts 81°
2026-04-21 15:03 -6.71871 108.43377 22927 ft 419 kts 81°
2026-04-21 15:03 -6.71398 108.46287 23303 ft 421 kts 81°
2026-04-21 15:04 -6.70916 108.49204 23675 ft 423 kts 81°
2026-04-21 15:04 -6.70439 108.52142 24036 ft 426 kts 82°
2026-04-21 15:04 -6.70173 108.55108 24360 ft 429 kts 88°
2026-04-21 15:04 -6.70215 108.58109 24705 ft 431 kts 94°
2026-04-21 15:05 -6.70551 108.61083 25056 ft 433 kts 98°
2026-04-21 15:05 -6.71487 108.67115 25702 ft 438 kts 98°
2026-04-21 15:05 -6.71965 108.70137 26011 ft 441 kts 98°
2026-04-21 15:06 -6.72442 108.73176 26311 ft 443 kts 98°
2026-04-21 15:06 -6.72916 108.76224 26598 ft 445 kts 98°
2026-04-21 15:06 -6.73394 108.79314 26878 ft 448 kts 98°
2026-04-21 15:06 -6.73872 108.82416 27128 ft 451 kts 98°
2026-04-21 15:07 -6.74348 108.85511 27458 ft 451 kts 98°
2026-04-21 15:07 -6.74828 108.88639 27869 ft 450 kts 98°
2026-04-21 15:07 -6.75298 108.91705 28260 ft 449 kts 98°
2026-04-21 15:07 -6.75779 108.94833 28648 ft 448 kts 98°
2026-04-21 15:08 -6.76247 108.97895 29040 ft 447 kts 98°
2026-04-21 15:08 -6.76717 109.00961 29444 ft 446 kts 98°
2026-04-21 15:08 -6.77186 109.04028 29855 ft 445 kts 97°
2026-04-21 15:08 -6.77658 109.07119 30279 ft 444 kts 97°
2026-04-21 15:09 -6.78124 109.10171 30673 ft 443 kts 97°
2026-04-21 15:09 -6.78589 109.13217 31058 ft 442 kts 97°
2026-04-21 15:09 -6.79057 109.16281 31450 ft 441 kts 97°
2026-04-21 15:09 -6.79519 109.19312 31826 ft 440 kts 98°
2026-04-21 15:10 -6.79979 109.22333 32176 ft 440 kts 98°
2026-04-21 15:10 -6.80443 109.25376 32515 ft 439 kts 98°
2026-04-21 15:10 -6.80901 109.28378 32867 ft 439 kts 98°
2026-04-21 15:10 -6.81364 109.31416 33253 ft 438 kts 98°
2026-04-21 15:11 -6.81821 109.34413 33649 ft 437 kts 98°
2026-04-21 15:11 -6.82282 109.37436 34044 ft 436 kts 98°
2026-04-21 15:11 -6.82742 109.40463 34415 ft 435 kts 98°
2026-04-21 15:11 -6.83197 109.43449 34769 ft 433 kts 98°
2026-04-21 15:12 -6.83650 109.46426 35122 ft 432 kts 98°
2026-04-21 15:12 -6.84099 109.49384 35435 ft 431 kts 98°
2026-04-21 15:12 -6.84551 109.52358 35679 ft 432 kts 98°
2026-04-21 15:12 -6.85007 109.55361 35887 ft 433 kts 98°
2026-04-21 15:13 -6.85307 109.57340 36018 ft 434 kts 98°
2026-04-21 15:13 -6.85914 109.61340 36285 ft 435 kts 98°
2026-04-21 15:13 -6.86367 109.64333 36471 ft 436 kts 98°
2026-04-21 15:13 -6.86827 109.67368 36643 ft 437 kts 98°
2026-04-21 15:14 -6.87283 109.70376 36812 ft 437 kts 98°
2026-04-21 15:14 -6.87737 109.73369 36920 ft 439 kts 98°
2026-04-21 15:14 -6.88660 109.79468 36924 ft 439 kts 98°
2026-04-21 15:15 -6.89573 109.85497 36927 ft 439 kts 98°
2026-04-21 15:15 -6.90487 109.91546 36926 ft 439 kts 97°
2026-04-21 15:16 -6.91402 109.97607 36931 ft 438 kts 97°
2026-04-21 15:16 -6.92313 110.03652 36928 ft 438 kts 97°
2026-04-21 15:17 -6.93222 110.09689 36926 ft 438 kts 97°
2026-04-21 15:17 -6.94139 110.15771 36923 ft 439 kts 97°
2026-04-21 15:18 -6.95048 110.21819 36919 ft 440 kts 97°
2026-04-21 15:18 -6.95955 110.27866 36916 ft 440 kts 97°
2026-04-21 15:19 -6.96868 110.33946 36915 ft 440 kts 97°
2026-04-21 15:19 -6.97502 110.40048 36914 ft 438 kts 91°
2026-04-21 15:20 -6.97642 110.46185 36913 ft 438 kts 90°
2026-04-21 15:20 -6.97742 110.52286 36912 ft 438 kts 90°
2026-04-21 15:21 -6.97848 110.58401 36912 ft 439 kts 90°
2026-04-21 15:21 -6.97956 110.64555 36910 ft 439 kts 90°
2026-04-21 15:22 -6.98064 110.70644 36914 ft 439 kts 89°
2026-04-21 15:22 -6.98171 110.76765 36919 ft 439 kts 89°
2026-04-21 15:23 -6.98278 110.82918 36922 ft 439 kts 89°
2026-04-21 15:23 -6.98384 110.89030 36925 ft 440 kts 89°
2026-04-21 15:24 -6.98491 110.95179 36928 ft 440 kts 89°
2026-04-21 15:24 -6.98596 111.01332 36931 ft 441 kts 89°
2026-04-21 15:25 -6.98699 111.07481 36932 ft 441 kts 89°
2026-04-21 15:25 -6.98802 111.13624 36932 ft 440 kts 89°
2026-04-21 15:26 -6.98905 111.19778 36931 ft 439 kts 89°
2026-04-21 15:26 -6.99006 111.25920 36928 ft 439 kts 89°
2026-04-21 15:27 -6.99106 111.32034 36918 ft 439 kts 89°
2026-04-21 15:27 -6.99306 111.38164 36912 ft 441 kts 93°
2026-04-21 15:28 -7.00131 111.44283 36913 ft 442 kts 100°
2026-04-21 15:28 -7.01617 111.50238 36913 ft 442 kts 104°
2026-04-21 15:29 -7.03320 111.56200 36911 ft 442 kts 104°
2026-04-21 15:29 -7.05002 111.62101 36910 ft 441 kts 104°
2026-04-21 15:30 -7.06691 111.68051 36908 ft 441 kts 104°
2026-04-21 15:30 -7.08362 111.73954 36907 ft 441 kts 104°
2026-04-21 15:31 -7.10046 111.79909 36906 ft 442 kts 104°
2026-04-21 15:31 -7.11719 111.85828 36908 ft 442 kts 104°
2026-04-21 15:32 -7.13398 111.91771 36908 ft 441 kts 104°
2026-04-21 15:32 -7.15060 111.97659 36909 ft 440 kts 104°
2026-04-21 15:33 -7.16734 112.03591 36306 ft 445 kts 104°
2026-04-21 15:33 -7.17584 112.06602 35498 ft 446 kts 104°
2026-04-21 15:33 -7.18422 112.09580 34797 ft 445 kts 104°
2026-04-21 15:34 -7.19262 112.12560 34120 ft 443 kts 104°
2026-04-21 15:34 -7.20097 112.15517 33438 ft 442 kts 104°
2026-04-21 15:34 -7.20941 112.18513 32743 ft 442 kts 105°
2026-04-21 15:34 -7.21771 112.21458 32102 ft 442 kts 104°
2026-04-21 15:35 -7.22612 112.24446 31423 ft 443 kts 105°
2026-04-21 15:35 -7.23450 112.27424 30718 ft 445 kts 105°
2026-04-21 15:35 -7.24280 112.30375 30004 ft 447 kts 105°
2026-04-21 15:35 -7.25129 112.33392 29258 ft 449 kts 105°
2026-04-21 15:36 -7.25978 112.36411 28496 ft 452 kts 105°
2026-04-21 15:36 -7.26833 112.39452 27736 ft 455 kts 105°
2026-04-21 15:36 -7.27699 112.42531 27006 ft 455 kts 105°
2026-04-21 15:36 -7.28545 112.45540 26522 ft 450 kts 105°
2026-04-21 15:37 -7.29401 112.48586 26014 ft 446 kts 105°
2026-04-21 15:37 -7.30238 112.51566 25514 ft 442 kts 105°
2026-04-21 15:37 -7.31067 112.54517 25007 ft 438 kts 105°
2026-04-21 15:37 -7.31877 112.57407 24510 ft 434 kts 105°
2026-04-21 15:38 -7.32683 112.60281 24014 ft 430 kts 105°
2026-04-21 15:38 -7.33482 112.63134 23529 ft 427 kts 105°
2026-04-21 15:38 -7.34266 112.65932 23055 ft 423 kts 105°
2026-04-21 15:38 -7.35063 112.68771 22563 ft 420 kts 105°
2026-04-21 15:39 -7.35913 112.71553 22060 ft 417 kts 112°
2026-04-21 15:39 -7.37484 112.73989 21544 ft 415 kts 134°
2026-04-21 15:39 -7.39784 112.75685 21032 ft 414 kts 153°
2026-04-21 15:39 -7.42528 112.76503 20503 ft 413 kts 173°
2026-04-21 15:40 -7.45432 112.76413 19990 ft 411 kts 185°
2026-04-21 15:40 -7.48269 112.76080 19479 ft 409 kts 186°
2026-04-21 15:40 -7.51098 112.75750 18964 ft 406 kts 185°
2026-04-21 15:40 -7.53886 112.75438 18482 ft 403 kts 185°
2026-04-21 15:41 -7.56649 112.75137 17988 ft 400 kts 185°
2026-04-21 15:41 -7.59360 112.74847 17493 ft 397 kts 184°
2026-04-21 15:41 -7.62082 112.74561 16994 ft 395 kts 184°
2026-04-21 15:41 -7.64771 112.74281 16496 ft 392 kts 184°
2026-04-21 15:42 -7.67514 112.73995 15969 ft 390 kts 185°
2026-04-21 15:42 -7.70203 112.73717 15443 ft 389 kts 185°
2026-04-21 15:42 -7.72872 112.73439 15122 ft 379 kts 185°
2026-04-21 15:42 -7.75469 112.73168 15057 ft 364 kts 185°
2026-04-21 15:43 -7.77950 112.72908 14967 ft 350 kts 185°
2026-04-21 15:43 -7.80336 112.72660 14888 ft 336 kts 185°
2026-04-21 15:43 -7.82601 112.72424 14835 ft 322 kts 185°
2026-04-21 15:43 -7.84796 112.72194 14776 ft 309 kts 185°
2026-04-21 15:44 -7.86899 112.71974 14720 ft 295 kts 185°
2026-04-21 15:44 -7.88904 112.71765 14679 ft 282 kts 185°
2026-04-21 15:44 -7.90832 112.71565 14640 ft 280 kts 184°
2026-04-21 15:44 -7.92793 112.71362 14514 ft 280 kts 185°
2026-04-21 15:45 -7.94724 112.71166 14204 ft 282 kts 184°
2026-04-21 15:45 -7.96711 112.70969 13755 ft 286 kts 185°
2026-04-21 15:45 -7.98686 112.70773 13326 ft 289 kts 185°
2026-04-21 15:45 -8.00707 112.70572 12894 ft 292 kts 185°
2026-04-21 15:46 -8.02725 112.70369 12465 ft 295 kts 185°
2026-04-21 15:46 -8.04785 112.70162 12033 ft 297 kts 185°
2026-04-21 15:46 -8.06859 112.69954 11604 ft 299 kts 185°
2026-04-21 15:46 -8.08941 112.69745 11142 ft 302 kts 185°
2026-04-21 15:47 -8.11061 112.69532 10391 ft 316 kts 185°
2026-04-21 15:47 -8.13287 112.69310 9704 ft 323 kts 185°
2026-04-21 15:47 -8.15526 112.69084 9405 ft 317 kts 185°
2026-04-21 15:47 -8.17683 112.68868 9075 ft 313 kts 185°
2026-04-21 15:48 -8.19844 112.68707 8703 ft 310 kts 176°
2026-04-21 15:48 -8.21897 112.69309 8315 ft 304 kts 146°
2026-04-21 15:48 -8.23344 112.70797 7963 ft 297 kts 118°
2026-04-21 15:48 -8.23978 112.72742 7618 ft 291 kts 92°
2026-04-21 15:49 -8.23740 112.74720 7284 ft 285 kts 69°
2026-04-21 15:49 -8.22730 112.76395 6936 ft 280 kts 45°
2026-04-21 15:49 -8.21154 112.77489 6609 ft 276 kts 21°
2026-04-21 15:49 -8.19281 112.77845 6285 ft 272 kts 359°
2026-04-21 15:50 -8.17432 112.77546 6112 ft 263 kts 346°
2026-04-21 15:50 -8.15714 112.77062 5836 ft 252 kts 345°
2026-04-21 15:50 -8.14030 112.76584 5521 ft 251 kts 345°
2026-04-21 15:50 -8.12361 112.76146 5195 ft 241 kts 346°
2026-04-21 15:51 -8.10758 112.75751 4888 ft 230 kts 347°
2026-04-21 15:51 -8.09230 112.75383 4595 ft 220 kts 347°
2026-04-21 15:51 -8.07787 112.75038 4323 ft 211 kts 347°
2026-04-21 15:51 -8.06393 112.74703 4156 ft 195 kts 347°
2026-04-21 15:52 -8.05101 112.74391 3885 ft 183 kts 347°
2026-04-21 15:52 -8.03913 112.74103 3631 ft 170 kts 347°
2026-04-21 15:52 -8.03161 112.73922 3488 ft 161 kts 347°
2026-04-21 15:52 -8.01756 112.73582 3209 ft 149 kts 347°
2026-04-21 15:53 -8.00767 112.73342 3021 ft 146 kts 347°
2026-04-21 15:53 -7.99779 112.73103 2849 ft 145 kts 348°
2026-04-21 15:53 -7.98796 112.72864 2672 ft 145 kts 348°
2026-04-21 15:53 -7.97809 112.72632 2498 ft 145 kts 348°
2026-04-21 15:54 -7.96825 112.72395 2308 ft 145 kts 348°
2026-04-21 15:54 -7.95837 112.72145 2116 ft 144 kts 347°
2026-04-21 15:54 -7.94860 112.71909 1937 ft 143 kts 347°
2026-04-21 15:54 -7.93911 112.71675 1756 ft 139 kts 347°
2026-04-21 15:55 -7.93108 112.71481 1746 ft 77 kts 347°
2026-04-21 15:55 -7.92794 112.71410 1749 ft 23 kts 356°
2026-04-21 15:55 -7.92757 112.71396 1749 ft 2 kts 164°
2026-04-21 15:55 -7.92780 112.71403 1749 ft 4 kts 166°
2026-04-21 15:56 -7.92823 112.71413 1748 ft 8 kts 166°
2026-04-21 15:56 -7.92883 112.71428 1748 ft 9 kts 166°
2026-04-21 15:56 -7.92952 112.71444 1749 ft 11 kts 166°
2026-04-21 15:56 -7.93037 112.71465 1748 ft 14 kts 166°
2026-04-21 15:57 -7.93160 112.71495 1744 ft 21 kts 166°
2026-04-21 15:57 -7.93316 112.71532 1742 ft 24 kts 166°
2026-04-21 15:57 -7.93485 112.71574 1739 ft 16 kts 168°
2026-04-21 15:57 -7.93547 112.71494 1737 ft 16 kts 256°
2026-04-21 15:58 -7.93577 112.71368 1732 ft 20 kts 257°
2026-04-21 15:58 -7.93614 112.71268 1730 ft 6 kts 214°
2026-04-21 15:58 -7.93666 112.71273 1729 ft 8 kts 167°
2026-04-21 15:58 -7.93726 112.71287 1728 ft 4 kts 169°
2026-04-21 15:59 -7.93739 112.71273 1727 ft 6 kts 255°
2026-04-21 15:59 -7.93748 112.71232 1727 ft 0 kts 257°
2026-04-21 15:59 -7.93748 112.71230 1727 ft 0 kts 257°